Location: Hokitika
(42.7170°S, 170.9670°E)
Time: 03:15:06
(UTC+13:00)

Cosmos 2322 Rocket - Pass Details

Date: 24 January 2019
Orbit: 834 x 849 km, 71.0° (Epoch: 15 February)

Event Time Altitude Azimuth Distance (km) Brightness Sun altitude
Rises 22:56:51 0° 322° (NW) 3,391 5.2 -16.6°
Reaches altitude 10° 22:59:21 10° 317° (NW) 2,466 4.6 -16.9°
Maximum altitude 23:04:52 51° 241° (WSW) 1,063 3.1 -17.6°
Drops below altitude 10° 23:10:28 10° 164° (SSE) 2,503 5.1 -18.2°
Sets 23:13:02 0° 159° (SSE) 3,447 5.8 -18.5°
